FW9094 Weather Reports


time (UTC)temp
C
wind
direction
speed
KPH
gust
KPH
rain 1hr
cm
rain 24hr
cm
rain mn
cm
humidity
%
barometer
mb
20260507093049 12 45 8.0 17.7 0.00 0.56 0.00 69 1015.3
20260507092037 12 45 6.4 20.9 0.00 0.58 0.00 72 1015.3
20260507091008 11 45 6.4 17.7 0.00 0.61 0.00 73 1015.4
20260507083858 10 68 4.8 14.5 0.00 0.61 0.00 78 1015.4
20260507082906 10 68 6.4 14.5 0.00 0.61 0.00 77 1015.4
20260507081840 10 23 4.8 16.1 0.00 0.61 0.00 80 1015.2
20260507074736 9 45 3.2 12.9 0.00 0.61 0.00 83 1015.0
20260507073723 8 68 4.8 16.1 0.00 0.61 0.00 83 1015.0
20260507072707 8 45 6.4 17.7 0.00 0.61 0.00 84 1015.0
20260507070626 8 45 4.8 14.5 0.00 0.61 0.00 85 1014.9
20260507065606 8 45 4.8 12.9 0.00 0.61 0.00 85 1014.8
20260507064552 8 45 4.8 14.5 0.00 0.61 0.00 86 1014.7
20260507063530 8 68 4.8 14.5 0.00 0.61 0.00 86 1014.6
20260507062517 8 45 6.4 14.5 0.00 0.61 0.00 85 1014.6
20260507061506 8 45 4.8 14.5 0.00 0.61 0.00 85 1014.4
20260507060435 8 45 3.2 12.9 0.00 0.61 0.00 86 1014.3
20260507055402 8 68 4.8 12.9 0.00 0.61 0.00 87 1014.1
20260507054340 8 45 4.8 8.0 0.00 0.61 0.00 88 1014.1
20260507053325 8 45 3.2 8.0 0.00 0.61 0.00 88 1014.1
20260507052314 8 68 3.2 8.0 0.00 0.61 0.00 88 1014.0
20260507051243 7 68 3.2 8.0 0.00 0.61 0.00 88 1013.8
20260507045206 7 45 4.8 12.9 0.00 0.61 0.00 88 1013.6
20260507044134 7 45 3.2 9.7 0.00 0.61 0.00 88 1013.6
20260507042057 7 45 3.2 9.7 0.00 0.61 0.00 88 1013.5
20260507041045 7 68 3.2 8.0 0.00 0.61 0.00 88 1013.4
20260507040025 7 68 3.2 8.0 0.00 0.61 0.00 88 1013.2
20260507035013 7 68 3.2 6.4 0.00 0.61 0.00 88 1013.1
20260507033945 7 45 3.2 6.4 0.00 0.61 0.00 88 1013.1
20260507032926 7 113 3.2 11.3 0.00 0.61 0.00 88 1013.1
20260507031916 7 45 3.2 11.3 0.00 0.61 0.00 88 1013.0
20260507030907 7 45 4.8 12.9 0.00 0.61 0.00 88 1013.0
20260507025837 7 45 4.8 12.9 0.00 0.61 0.00 88 1013.0
20260507024818 7 45 3.2 9.7 0.00 0.61 0.00 88 1012.9
20260507023800 7 68 3.2 14.5 0.00 0.61 0.00 88 1012.8
20260507022737 7 23 4.8 12.9 0.00 0.61 0.00 88 1012.7
20260507020723 7 45 6.4 16.1 0.00 0.61 0.00 89 1012.5
20260507015712 7 23 3.2 12.9 0.00 0.61 0.00 90 1012.3
20260507014649 8 45 3.2 8.0 0.00 0.61 0.00 90 1012.2
20260507013620 8 45 3.2 11.3 0.00 0.61 0.00 90 1012.0
20260507012551 8 68 3.2 8.0 0.00 0.61 0.00 90 1012.0
20260507011526 8 68 4.8 12.9 0.00 0.61 0.00 91 1011.9
20260507010501 8 45 3.2 12.9 0.00 0.61 0.00 91 1011.9
20260507005451 8 45 1.6 8.0 0.00 0.61 0.00 91 1011.8
20260507004453 8 45 3.2 9.7 0.00 0.61 0.00 91 1011.7
20260507003415 8 90 3.2 12.9 0.00 0.61 0.00 92 1011.6
20260507002355 8 135 3.2 6.4 0.00 0.61 0.00 92 1011.6
20260507001322 8 90 3.2 12.9 0.00 0.61 0.00 92 1011.7
20260506235237 8 68 3.2 8.0 0.00 0.61 0.00 92 1011.8
20260506234234 8 113 3.2 14.5 0.00 0.61 0.00 93 1011.7
20260506233212 8 68 1.6 6.4 0.00 0.61 0.00 93 1011.7
20260506232136 8 68 3.2 8.0 0.00 0.61 0.00 93 1011.6
20260506230033 8 68 1.6 4.8 0.00 0.61 0.00 93 1011.8
20260506225017 8 68 3.2 6.4 0.00 0.61 0.00 93 1011.5
20260506223950 8 45 4.8 9.7 0.00 0.61 0.00 93 1011.5
20260506222940 8 45 3.2 8.0 0.00 0.61 0.00 93 1011.4
20260506221912 8 68 3.2 8.0 0.00 0.61 0.00 93 1011.4
20260506220853 8 68 3.2 6.4 0.00 0.61 0.00 93 1011.4
20260506215823 8 68 3.2 6.4 0.00 0.61 0.61 93 1011.3
20260506214811 8 45 3.2 9.7 0.00 0.61 0.61 93 1011.2
20260506213752 8 45 3.2 9.7 0.00 0.61 0.61 94 1011.1
20260506211712 8 68 3.2 8.0 0.00 0.61 0.61 94 1010.9
20260506210641 8 68 1.6 8.0 0.00 0.61 0.61 94 1010.9
20260506205640 8 68 1.6 6.4 0.00 0.61 0.61 94 1010.9
20260506204628 8 68 0.0 1.6 0.00 0.61 0.61 94 1010.9
20260506203609 8 68 0.0 4.8 0.00 0.61 0.61 94 1010.8
20260506202558 8 68 1.6 4.8 0.00 0.61 0.61 94 1010.8
20260506201547 8 23 1.6 4.8 0.00 0.61 0.61 94 1010.7
20260506200515 8 23 3.2 8.0 0.00 0.61 0.61 94 1010.6
20260506195512 8 23 3.2 8.0 0.00 0.61 0.61 95 1010.6
20260506194449 8 45 3.2 8.0 0.00 0.61 0.61 95 1010.6
20260506193440 8 68 0.0 4.8 0.00 0.61 0.61 95 1010.6
20260506192412 8 68 0.0 3.2 0.00 0.61 0.61 94 1010.2
20260506190346 8 68 0.0 0.0 0.00 0.61 0.61 95 1010.0
20260506185317 8 68 0.0 0.0 0.00 0.61 0.61 95 1010.1
20260506184308 8 68 0.0 1.6 0.03 0.61 0.61 95 1009.9
20260506183244 8 68 0.0 1.6 0.03 0.61 0.61 94 1009.9
20260506182221 8 68 0.0 0.0 0.03 0.61 0.61 94 1009.8
20260506181212 8 68 0.0 1.6 0.03 0.61 0.61 94 1009.7
20260506180153 8 68 0.0 3.2 0.05 0.61 0.61 93 1009.6
20260506175129 8 68 0.0 3.2 0.05 0.61 0.61 93 1009.5
20260506174118 8 68 0.0 3.2 0.05 0.61 0.61 93 1009.5
20260506173110 8 68 0.0 3.2 0.08 0.61 0.61 93 1009.3
20260506171025 8 68 0.0 3.2 0.10 0.58 0.58 93 1009.3
20260506165956 8 68 0.0 3.2 0.13 0.56 0.56 92 1009.3
20260506164932 8 68 0.0 3.2 0.15 0.53 0.53 92 1009.3
20260506163923 8 68 0.0 3.2 0.15 0.51 0.51 92 1009.3
20260506162908 8 68 0.0 3.2 0.15 0.51 0.51 91 1009.3
20260506161835 8 68 1.6 4.8 0.15 0.48 0.48 89 1009.3
20260506160819 9 68 3.2 6.4 0.10 0.43 0.43 87 1009.4
20260506155815 9 45 3.2 8.0 0.08 0.43 0.43 85 1009.4
20260506154805 10 45 3.2 8.0 0.05 0.38 0.38 85 1009.5
20260506153754 10 68 4.8 14.5 0.05 0.36 0.36 84 1009.4
20260506152735 10 45 6.4 14.5 0.03 0.33 0.33 83 1009.3
20260506151714 10 45 4.8 12.9 0.05 0.33 0.33 82 1009.2
20260506150701 10 45 3.2 8.0 0.05 0.33 0.33 84 1009.2
20260506145657 10 45 4.8 14.5 0.03 0.33 0.33 87 1009.2
20260506144637 10 90 1.6 14.5 0.05 0.33 0.33 91 1009.2
20260506143624 10 113 1.6 4.8 0.05 0.33 0.33 90 1009.2
20260506142605 10 45 3.2 14.5 0.05 0.30 0.30 89 1009.2
20260506141547 10 113 0.0 14.5 0.05 0.30 0.30 90 1009.2
20260506140528 10 113 1.6 6.4 0.08 0.30 0.30 89 1009.2
20260506135516 10 113 1.6 6.4 0.05 0.28 0.28 88 1009.2
20260506134441 10 113 3.2 16.1 0.08 0.28 0.28 87 1009.2
20260506125328 9 68 0.0 1.6 0.05 0.20 0.20 90 1009.2
20260506124257 10 68 0.0 1.6 0.05 0.18 0.18 89 1009.1
20260506123226 10 68 0.0 1.6 0.05 0.18 0.18 87 1009.0
20260506122156 10 68 0.0 3.2 0.03 0.15 0.15 85 1009.0
20260506121135 10 68 1.6 4.8 0.00 0.15 0.15 83 1008.9
20260506120113 10 45 3.2 8.0 0.03 0.15 0.15 81 1008.8
20260506115108 10 45 3.2 8.0 0.03 0.15 0.15 82 1008.8
20260506114049 10 45 3.2 8.0 0.05 0.15 0.15 83 1008.8
20260506113032 9 45 3.2 9.7 0.05 0.15 0.15 84 1008.8
20260506110950 9 45 3.2 12.9 0.05 0.13 0.13 85 1008.8
20260506105912 9 45 3.2 8.0 0.05 0.13 0.13 85 1008.9
20260506104852 10 68 3.2 9.7 0.05 0.10 0.10 85 1008.9
20260506102822 10 45 4.8 11.3 0.05 0.08 0.08 82 1008.9
20260506101749 10 68 4.8 9.7 0.05 0.08 0.08 84 1008.9
20260506100723 10 45 4.8 9.7 0.05 0.05 0.05 85 1008.8
20260506094648 9 68 3.2 9.7 0.05 0.05 0.05 85 1008.8